Weather History for KEVM - January, 2014

Change the Weather History Date:

Wednesday, January 8, 2014

  Actual Average Record
Temperature  
Mean Temperature -11 °F -  
Max Temperature 3 °F 16 °F 46 °F (2003)
Min Temperature -25 °F 0 °F -25 °F (2014)
Degree Days  
Heating Degree Days 76    
Moisture  
Dew Point -19 °F    
Average Humidity 68    
Maximum Humidity 84    
Minimum Humidity 51    
Precipitation  
Precipitation 0.00 in - - ()
Sea Level Pressure  
Sea Level Pressure 30.27 in    
Wind  
Wind Speed 3 mph (West)    
Max Wind Speed 8 mph    
Max Gust Speed -    
Visibility 9 miles    
Events Snow    
Averages and records for this station are not official NWS values.
T = Trace of Precipitation, MM = Missing Value Source: NWS Daily Summary

Daily Weather History Graph

Daily Weather History Graph

Search for Another Location

Airport or City:

Trip Planner

Search our weather history database for the weather conditions in past years. The results will help you decide how hot, cold, wet, or windy it might be!

Date:

Astronomy

Jan. 08, 2014 Rise Set
Actual Time 7:56 AM CST 4:37 PM CST
Civil Twilight 7:21 AM CST 5:12 PM CST
Nautical Twilight 6:42 AM CST 5:51 PM CST
Astronomical Twilight 6:05 AM CST 6:28 PM CST
Moon 11:43 AM CST (1/8) 12:47 AM CST (1/8)
Length of Visible Light 9h 51m
Length of Day
8h 41m
First Quarter, 56% of the Moon is Illuminated
Jan 8
First Quarter
Jan 15
Full
Jan 23
Last Quarter
Jan 30
New
Feb 6
First Quarter

Hourly Weather History & Observations

Time (CST) Temp. Windchill Dew Point Humidity Pressure Visibility Wind Dir Wind Speed Gust Speed Precip Events Conditions
12:06 AM -9.4 °F -20.9 °F -16.6 °F 71% 30.15 in 10.0 mi SW 4.6 mph - N/A   Overcast
12:26 AM -13.0 °F - -18.4 °F 77% 30.14 in 5.0 mi Calm Calm - N/A Snow Light Snow
12:47 AM -9.4 °F - -16.6 °F 71% 30.14 in 10.0 mi Calm Calm - N/A Snow Light Snow
1:06 AM -13.0 °F - -18.4 °F 77% 30.15 in 7.0 mi Calm Calm - N/A Snow Light Snow
1:26 AM -13.0 °F - -18.4 °F 77% 30.15 in 7.0 mi Calm Calm - N/A Snow Light Snow
1:47 AM -13.0 °F - -18.4 °F 77% 30.16 in 4.0 mi Calm Calm - N/A Snow Light Snow
2:06 AM -9.4 °F - -14.8 °F 77% 30.17 in 7.0 mi Calm Calm - N/A Snow Light Snow
2:26 AM -9.4 °F -20.9 °F -16.6 °F 71% 30.18 in 7.0 mi West 4.6 mph - N/A Snow Light Snow
2:46 AM -13.0 °F - -18.4 °F 77% 30.19 in 4.0 mi Calm Calm - N/A Snow Light Snow
3:06 AM -13.0 °F -25.1 °F -18.4 °F 77% 30.19 in 10.0 mi West 4.6 mph - N/A   Clear
3:27 AM -13.0 °F -22.7 °F -18.4 °F 77% 30.20 in 10.0 mi West 3.5 mph - N/A   Clear
3:46 AM -13.0 °F - -18.4 °F 77% 30.21 in 7.0 mi Calm Calm - N/A Snow Light Snow
4:06 AM -14.8 °F - -20.2 °F 77% 30.20 in 7.0 mi Calm Calm - N/A Snow Light Snow
4:27 AM -16.6 °F -26.8 °F -22.0 °F 76% 30.21 in 4.0 mi West 3.5 mph - N/A Snow Light Snow
4:46 AM -16.6 °F -26.8 °F -23.8 °F 70% 30.21 in 10.0 mi SSE 3.5 mph - N/A Snow Light Snow
5:06 AM -14.8 °F - -18.4 °F 84% 30.21 in 10.0 mi Calm Calm - N/A Snow Light Snow
5:27 AM -16.6 °F -26.8 °F -23.8 °F 70% 30.21 in 5.0 mi South 3.5 mph - N/A Snow Light Snow
5:46 AM -20.2 °F - -27.4 °F 69% 30.22 in 7.0 mi Calm Calm - N/A Snow Light Snow
6:06 AM -16.6 °F - -23.8 °F 70% 30.22 in 10.0 mi Calm Calm - N/A   Clear
6:27 AM -16.6 °F - -23.8 °F 70% 30.22 in 10.0 mi Calm Calm - N/A   Clear
6:46 AM -16.6 °F - -22.0 °F 76% 30.23 in 7.0 mi Calm Calm - N/A Snow Light Snow
7:07 AM -16.6 °F -29.3 °F -23.8 °F 70% 30.23 in 10.0 mi WSW 4.6 mph - N/A   Overcast
7:26 AM -16.6 °F -31.3 °F -23.8 °F 70% 30.25 in 3.0 mi West 5.8 mph - N/A Snow Light Snow
7:46 AM -16.6 °F -31.3 °F -23.8 °F 70% 30.25 in 4.0 mi WSW 5.8 mph - N/A Snow Light Snow
8:07 AM -16.6 °F -31.3 °F -23.8 °F 70% 30.26 in 2.0 mi SW 5.8 mph - N/A Snow Light Snow
8:26 AM -16.6 °F -26.8 °F -23.8 °F 70% 30.27 in 5.0 mi SW 3.5 mph - N/A   Haze
8:46 AM -16.6 °F - -23.8 °F 70% 30.27 in 5.0 mi Calm Calm - N/A   Haze
9:06 AM -14.8 °F - -22.0 °F 70% 30.28 in 10.0 mi Calm Calm - N/A   Clear
9:27 AM -13.0 °F -22.7 °F -18.4 °F 77% 30.29 in 10.0 mi WSW 3.5 mph - N/A   Clear
9:46 AM -13.0 °F - -16.6 °F 84% 30.29 in 10.0 mi Calm Calm - N/A   Clear
10:06 AM -7.6 °F -18.8 °F -13.0 °F 77% 30.30 in 10.0 mi WNW 4.6 mph - N/A   Clear
10:27 AM -7.6 °F -20.6 °F -14.8 °F 71% 30.30 in 10.0 mi WNW 5.8 mph - N/A   Clear
10:46 AM -5.8 °F -16.7 °F -14.8 °F 65% 30.31 in 10.0 mi NW 4.6 mph - N/A   Clear
11:06 AM -5.8 °F -18.4 °F -14.8 °F 65% 30.30 in 10.0 mi NW 5.8 mph - N/A   Clear
11:27 AM -2.2 °F -14.2 °F -13.0 °F 60% 30.30 in 10.0 mi NW 5.8 mph - N/A   Clear
11:46 AM -2.2 °F -14.2 °F -13.0 °F 60% 30.30 in 10.0 mi NW 5.8 mph - N/A   Clear
12:07 PM -2.2 °F -10.4 °F -14.8 °F 55% 30.29 in 10.0 mi West 3.5 mph - N/A   Clear
12:27 PM -0.4 °F -12.0 °F -14.8 °F 51% 30.29 in 10.0 mi WNW 5.8 mph - N/A   Clear
12:46 PM -0.4 °F -13.4 °F -13.0 °F 55% 30.28 in 10.0 mi West 6.9 mph - N/A   Clear
1:07 PM 1.4 °F -12.5 °F -13.0 °F 51% 30.28 in 10.0 mi West 8.1 mph - N/A   Clear
1:27 PM 1.4 °F -11.3 °F -13.0 °F 51% 30.29 in 10.0 mi WNW 6.9 mph - N/A   Clear
1:46 PM 1.4 °F -9.9 °F -13.0 °F 51% 30.29 in 10.0 mi WSW 5.8 mph - N/A   Clear
2:06 PM 3.2 °F -9.1 °F -11.2 °F 51% 30.29 in 10.0 mi WSW 6.9 mph - N/A   Clear
2:27 PM 3.2 °F -7.8 °F -11.2 °F 51% 30.30 in 10.0 mi WSW 5.8 mph - N/A   Clear
2:46 PM 3.2 °F -9.1 °F -11.2 °F 51% 30.30 in 10.0 mi WSW 6.9 mph - N/A   Clear
3:07 PM 3.2 °F -9.1 °F -11.2 °F 51% 30.32 in 10.0 mi WSW 6.9 mph - N/A   Clear
3:26 PM 3.2 °F -9.1 °F -11.2 °F 51% 30.32 in 10.0 mi WSW 6.9 mph - N/A   Clear
3:46 PM 3.2 °F -10.3 °F -11.2 °F 51% 30.32 in 10.0 mi WSW 8.1 mph - N/A   Clear
4:07 PM 1.4 °F -11.3 °F -13.0 °F 51% 30.33 in 10.0 mi WSW 6.9 mph - N/A   Clear
4:26 PM -0.4 °F -12.0 °F -13.0 °F 55% 30.33 in 10.0 mi WSW 5.8 mph - N/A   Clear
4:46 PM -0.4 °F -8.3 °F -13.0 °F 55% 30.33 in 10.0 mi WSW 3.5 mph - N/A   Clear
5:07 PM -2.2 °F -12.5 °F -13.0 °F 60% 30.34 in 10.0 mi West 4.6 mph - N/A   Clear
5:26 PM -9.4 °F -20.9 °F -18.4 °F 65% 30.33 in 10.0 mi West 4.6 mph - N/A   Clear
5:46 PM -7.6 °F - -14.8 °F 71% 30.34 in 10.0 mi Calm Calm - N/A   Clear
6:07 PM -9.4 °F -18.6 °F -16.6 °F 71% 30.34 in 10.0 mi West 3.5 mph - N/A   Clear
6:26 PM -5.8 °F - -13.0 °F 71% 30.33 in 10.0 mi Calm Calm - N/A   Clear
6:46 PM -14.8 °F - -22.0 °F 70% 30.33 in 10.0 mi Calm Calm - N/A   Clear
7:07 PM -16.6 °F - -22.0 °F 76% 30.33 in 10.0 mi Calm Calm - N/A   Clear
7:26 PM -16.6 °F - -22.0 °F 76% 30.34 in 10.0 mi Calm Calm - N/A   Clear
7:46 PM -16.6 °F - -23.8 °F 70% 30.33 in 10.0 mi Calm Calm - N/A   Clear
8:07 PM -20.2 °F - -27.4 °F 69% 30.33 in 10.0 mi Calm Calm - N/A   Clear
8:26 PM -16.6 °F - -23.8 °F 70% 30.34 in 10.0 mi Calm Calm - N/A   Clear
8:47 PM -20.2 °F - -25.6 °F 76% 30.33 in 10.0 mi Calm Calm - N/A   Clear
9:06 PM -20.2 °F - -25.6 °F 76% 30.33 in 10.0 mi Calm Calm - N/A   Clear
9:26 PM -22.0 °F - -29.2 °F 69% 30.33 in 10.0 mi Calm Calm - N/A   Clear
9:47 PM -22.0 °F - -29.2 °F 69% 30.32 in 10.0 mi Calm Calm - N/A   Clear
10:06 PM -25.6 °F - -32.8 °F 69% 30.32 in 10.0 mi Calm Calm - N/A   Clear
10:26 PM -23.8 °F - -31.0 °F 69% 30.31 in 10.0 mi Calm Calm - N/A   Clear
10:47 PM -23.8 °F - -31.0 °F 69% 30.32 in 10.0 mi Calm Calm - N/A   Clear
11:06 PM -22.0 °F - -29.2 °F 69% 30.31 in 10.0 mi Calm Calm - N/A   Clear
11:26 PM -23.8 °F - -31.0 °F 69% 30.31 in 10.0 mi Calm Calm - N/A   Clear
11:47 PM -25.6 °F - -32.8 °F 69% 30.30 in 10.0 mi Calm Calm - N/A   Clear